Flag for Switzerland Weather past 2 weeks in Lausanne, Vaud, Switzerland

Now
52 °F

Cool.


Feels Like: 51 °F
Forecast: 38 / 60 °F
Wind: 5 mph from North

Location: Aigle

Current Time: Apr 18, 2015 at 10:20:22 AM

Latest Report: Apr 18, 2015 at 9:00 AM


Visibility: N/A

Pressure: 30.04 "Hg

Humidity: 89%

Dew point: 49 °F

Location of LausanneLocation

Historic Weather in Lausanne — Graph

°F

Lausanne temperature yesterday

Maximum temperature yesterday: 57 °F (at 5:00 PM)
Minimum temperature yesterday: 51 °F (at 6:00 AM)
Average temperature yesterday: 54 °F

Past Weeks' High & Low Weather Summary

 TemperatureHumidityPressure
High72 °F (Apr 15, 6:00 PM)98% (Apr 18, 6:00 AM)30.55 "Hg (Apr 18, 6:00 AM)
Low30 °F (Apr 7, 7:00 AM)26% (Apr 15, 6:00 PM)29.86 "Hg (Apr 4, 5:00 PM)
Average50 °F66%30.23 "Hg
* Reported Apr 3 9:00 AM — Apr 18 9:00 AM, Lausanne, Weather by CustomWeather, © 2015

Note: Actual official high and low records may vary slightly from our data, if they occured in-between our weather recording intervals... More about our weather records

Advertising

Lausanne weather history for previous 24 hours

 ConditionsComfort  
Time TempWeatherWind HumidityBarometerVisibility
9:00 AM
Sat, Apr 18
52 °FCool.5 mph89%30.04 "HgN/A
8:00 AM52 °FLight rain. Overcast.2 mph96%30.04 "Hg6 mi
7:00 AM51 °FCool.1 mph97%30.03 "HgN/A
6:00 AM51 °FCool.1 mph98%30.03 "HgN/A
4:00 AM51 °FCool.2 mph95%30.04 "HgN/A
3:00 AM52 °FCool.2 mph92%30.03 "HgN/A
2:00 AM52 °FCool.7 mph92%30.03 "HgN/A
1:00 AM53 °FCool.12 mph93%30.03 "HgN/A
12:00 AM53 °FCool.2 mph97%30.03 "HgN/A
10:00 PM
Fri, Apr 17
53 °FCool.3 mph95%30.02 "HgN/A
9:00 PM54 °FCool.1 mph94%30.01 "HgN/A
8:00 PM54 °FOvercast.1 mph90%30.00 "Hg7 mi
7:00 PM55 °FCool.3 mph88%29.99 "HgN/A
6:00 PM56 °FCool.6 mph84%29.98 "HgN/A
5:00 PM57 °FOvercast.7 mph80%29.98 "Hg11 mi
4:00 PM57 °FCool.7 mph82%29.99 "HgN/A
3:00 PM56 °FCool.6 mph83%30.00 "HgN/A
2:00 PM56 °FOvercast.6 mph84%30.00 "Hg12 mi
1:00 PM55 °FCool.5 mph88%30.01 "HgN/A
12:00 PM55 °FCool.5 mph91%30.00 "HgN/A
11:00 AM54 °FLight rain. Overcast.No wind91%30.00 "Hg11 mi
10:00 AM53 °FCool.No wind95%29.99 "HgN/A
Weather by CustomWeather, © 2015

See weather overviewHow to use our weather pages